sat.trackr.live / text

‹ back to catalog

STARLINK-37312

NORAD 68676 · 2026-077Q

PAYLOAD ACTIVE UNKNOWN

§ Identity

Operator
Country
US
Launch date
2026-04-11
Launch site
AFWTR
Launch vehicle
Mass (kg)
RCS (m²)

Purposes: comms

External: N2YO · Heavens-Above · Gunter

§ Orbital elements

Epoch: 2026-05-25T02:45:57.002112Z

Period
93.91 min
Inclination
97.2861°
Eccentricity
0.0001421
Mean motion
15.33453172 rev/d
Perigee alt
464.5 km
Apogee alt
466.5 km
Semi-major
6,843.7 km
B*
5.0247e-4
RAAN
16.7399°
Arg perigee
96.1296°
Mean anomaly
264.0108°
Rev number
687

§ Raw data

STARLINK-373121 68676U 26077Q   26145.11524308  .00016186  00000+0  50247-3 0  99992 68676  97.2861  16.7399 0001421  96.1296 264.0108 15.33453172  6870

JSON: /api/v1/satellites/68676 · /tle

For live sub-satellite position, see the globe view (requires WebGL).

§ Visibility from observer

Set your observer location to see the next 7 days of passes ≥ 10°. The values pass through the URL so the page stays shareable.

No JS? Fill the form by hand. The geolocation button needs JavaScript.